Air Resources Laboratory banner image
Air Resources Laboratory web site National Oceanic and Atmospheric Administration (NOAA)

tn roundup


Office: MEG

ASUS44 KMEG 211800
RWRTN
TENNESSEE HOURLY STATE WEATHER ROUNDUP
NATIONAL WEATHER SERVICE MEMPHIS TN
1200 PM CST WED NOV 21 2018

TNZ002-004-019-021-049-052-054-088>092-211900-
WEST TENNESSEE

CITY           SKY/WX    TMP DP  RH WIND       PRES   REMARKS
MEMPHIS INTL   FAIR      51  36  56 CALM      30.39F
NWS MEMPHIS      N/A     52 N/A N/A MISG        N/A
JACKSON        FAIR      49  33  54 CALM      30.38F
DYERSBURG      FAIR      49  35  58 W6        30.39F
$$

TNZ008-025-027-028-033-062-065-066-211900-
NORTH MIDDLE TENNESSEE

CITY           SKY/WX    TMP DP  RH WIND       PRES   REMARKS
NASHVILLE      FAIR      49  28  44 VRB3      30.37F
CLARKSVILLE    FAIR      47  29  49 SW7       30.36F
SMYRNA         FAIR      48  30  49 NE3       30.38F
CROSSVILLE     FAIR      46  28  49 VRB5      30.30F
$$

TNZ061-075-076-078-094-096-097-211900-
SOUTH MIDDLE TENNESSEE

CITY           SKY/WX    TMP DP  RH WIND       PRES   REMARKS
$$

TNZ017-018-042-046-047-211900-
NORTHEAST TENNESSEE

CITY           SKY/WX    TMP DP  RH WIND       PRES   REMARKS
TRI CITIES     FAIR      47  30  51 NW5       30.28F
$$

TNZ012-013-036-069-073-074-211900-
CENTRAL EAST TENNESSEE

CITY           SKY/WX    TMP DP  RH WIND       PRES   REMARKS
KNOXVILLE      FAIR      48  27  44 N3        30.30F
OAK RIDGE      FAIR      48  30  49 VRB6      30.32F
$$

TNZ083-085-099-211900-
SOUTHEAST TENNESSEE

CITY           SKY/WX    TMP DP  RH WIND       PRES   REMARKS
CHATTANOOGA    FAIR      51  25  36 VRB3      30.32F
$$

SKY/WX REPORTED AS FAIR MEANS FEW OR NO CLOUDS BELOW
12 THOUSAND FEET.



ASUS44 KMEG 211810
RWRTN
TENNESSEE HOURLY STATE WEATHER ROUNDUP
NATIONAL WEATHER SERVICE MEMPHIS TN
1200 PM CST WED NOV 21 2018

TNZ002-004-019-021-049-052-054-088>092-211900-
WEST TENNESSEE

CITY           SKY/WX    TMP DP  RH WIND       PRES   REMARKS
MEMPHIS INTL   FAIR      51  36  56 CALM      30.39F
NWS MEMPHIS      N/A     52 N/A N/A MISG        N/A
JACKSON        FAIR      49  33  54 CALM      30.38F
DYERSBURG      FAIR      49  35  58 W6        30.39F
SOMERVILLE     SUNNY     50  34  53 CALM      30.37F
COVINGTON      SUNNY     52  36  54 CALM      30.39F
UNION CITY     SUNNY     48  36  61 VRB6      30.37F
PARIS          SUNNY     48  34  57 W6        30.37F
HUNTINGDON     SUNNY     48  34  57 VRB3      30.36F
LEXINGTON      SUNNY     46  32  57 CALM      30.37F
SELMER         SUNNY     48  30  49 VRB3      30.36F
SAVANNAH       SUNNY     48  32  53 CALM      30.37F
$$

TNZ008-025-027-028-033-062-065-066-211900-
NORTH MIDDLE TENNESSEE

CITY           SKY/WX    TMP DP  RH WIND       PRES   REMARKS
NASHVILLE      FAIR      49  28  44 VRB3      30.37F
DICKSON        CLEAR     48  30  49 CALM      30.34F
PORTLAND       SUNNY     46  30  53 VRB6      30.34F
CLARKSVILLE    FAIR      47  29  49 SW7       30.36F
LEBANON        CLEAR     45  28  53 CALM      30.35F
SMYRNA         FAIR      48  30  49 NE3       30.38F
MURFREESBORO   CLEAR     46  28  49 N5        30.35F
COOKEVILLE     SUNNY     46  30  53 W5        30.32F
LIVINGSTON     CLEAR     43  30  61 CALM      30.31F
CROSSVILLE     FAIR      46  28  49 VRB5      30.30F
ROCKWOOD       CLEAR     45  27  49 VRB3      30.29F
$$

TNZ061-075-076-078-094-096-097-211900-
SOUTH MIDDLE TENNESSEE

CITY           SKY/WX    TMP DP  RH WIND       PRES   REMARKS
LAWRENCEBURG   CLEAR     46  28  49 VRB5      30.35F
LEWISBURG      CLEAR     46  32  57 CALM      30.36F
FAYETTEVILLE   SUNNY     46  34  61 VRB6      30.33F
TULLAHOMA      SUNNY     46  30  53 CALM      30.33F
WINCHESTER     SUNNY     46  28  49 N7G13     30.33F
MCMINNVILLE    SUNNY     43  30  61 CALM      30.34F
COLUMBIA       SUNNY     45  28  53 CALM      30.35F
SHELBYVILLE    SUNNY     45  30  57 N7        30.35F
$$

TNZ017-018-042-046-047-211900-
NORTHEAST TENNESSEE

CITY           SKY/WX    TMP DP  RH WIND       PRES   REMARKS
TRI CITIES     FAIR      47  30  51 NW5       30.28F
ELIZABETHTON   FAIR      46  28  49 SW9G17    30.26F
GREENEVILLE    CLEAR     45  27  49 VRB3      30.27F
$$

TNZ012-013-036-069-073-074-211900-
CENTRAL EAST TENNESSEE

CITY           SKY/WX    TMP DP  RH WIND       PRES   REMARKS
KNOXVILLE      FAIR      48  27  44 N3        30.30F
OAK RIDGE      FAIR      48  30  49 VRB6      30.32F
DOWNTOWN KNOXV SUNNY     48  30  49 W7        30.32F
GATLINBURG     SUNNY     48  27  43 VRB3      30.30F
MORRISTOWN     SUNNY     45  28  53 CALM      30.28F
JACKSBORO      SUNNY     46  28  49 CALM      30.33F
$$

TNZ083-085-099-211900-
SOUTHEAST TENNESSEE

CITY           SKY/WX    TMP DP  RH WIND       PRES   REMARKS
CHATTANOOGA    FAIR      51  25  36 VRB3      30.32F
DAYTON         CLEAR     48  27  43 CALM      30.32F
$$

SKY/WX REPORTED AS FAIR MEANS FEW OR NO CLOUDS BELOW
12 THOUSAND FEET.